This is the latest recevied weather packets stored in our database for station/object KF6RAL-6. If no packets are shown the sender has not sent any weather packets the latest 10 day(s).
| Time | Temp. | Humidity | Pressure | Rain* | Wind** | Luminosity | Snow |
|---|---|---|---|---|---|---|---|
| 1788287118 | 21.67° C | 61% | 1016 hPa | 0 mm | - | - | - |
| 1788286697 | 21.67° C | 60% | 1016.1 hPa | 0 mm | - | - | - |
| 1788286276 | 21.67° C | 61% | 1016.2 hPa | 0 mm | - | - | - |
| 1788285855 | 21.67° C | 61% | 1016.1 hPa | 0 mm | - | - | - |
| 1788285434 | 21.11° C | 61% | 1016.4 hPa | 0 mm | - | - | - |
| 1788285013 | 21.11° C | 61% | 1016.4 hPa | 0 mm | - | - | - |
| 1788284593 | 21.11° C | 62% | 1016.4 hPa | 0 mm | - | - | - |
| 1788284171 | 20.56° C | 62% | 1016.5 hPa | 0 mm | - | - | - |
| 1788283750 | 20.56° C | 62% | 1016.6 hPa | 0 mm | - | - | - |
| 1788283329 | 20.56° C | 66% | 1016.4 hPa | 0 mm | - | - | - |
| 1788282909 | 20° C | 66% | 1015.9 hPa | 0 mm | - | - | - |
| 1788282487 | 20.56° C | 66% | 1016 hPa | 0 mm | - | - | - |
| 1788282066 | 20.56° C | 65% | 1016.6 hPa | 0 mm | - | - | - |
| 1788281645 | 20.56° C | 66% | 1016.6 hPa | 0 mm | - | - | - |
| 1788281225 | 20° C | 67% | 1015.8 hPa | 0 mm | - | - | - |
| 1788280804 | 20° C | 67% | 1015.8 hPa | 0 mm | - | - | - |
| 1788280382 | 20° C | 67% | 1016 hPa | 0 mm | - | - | - |
| 1788279962 | 19.44° C | 70% | 1016 hPa | 0 mm | - | - | - |
| 1788279540 | 19.44° C | 70% | 1015.8 hPa | 0 mm | - | - | - |
| 1788279119 | 19.44° C | 70% | 1016 hPa | 0 mm | - | - | - |
| 1788278698 | 19.44° C | 70% | 1015.9 hPa | 0 mm | - | - | - |
| 1788278278 | 19.44° C | 70% | 1015.9 hPa | 0 mm | - | - | - |
| 1788277856 | 19.44° C | 71% | 1016.5 hPa | 0 mm | - | - | - |
| 1788277437 | 18.89° C | 73% | 1016 hPa | 0 mm | - | - | - |
| 1788277014 | 18.89° C | 73% | 1016 hPa | 0 mm | - | - | - |
* Rain latest hour (hover to see other rain measurements)
** Current wind speed in m/s (hover to see current wind gust speed)